| time (UTC) | temp F | wind direction | speed MPH | gust MPH | rain 1hr in | rain 24hr in | rain mn in | humidity % | barometer mb |
| 20260510192011 | 43 | 225 | 6.0 | 6.0 | 0.00 | 0.00 | 0.00 | 49 | 1006.4 |
| 20260510191507 | 43 | 225 | 5.0 | 7.0 | 0.00 | 0.00 | 0.03 | 49 | 1006.4 |
| 20260510191001 | 43 | 225 | 6.0 | 7.0 | 0.00 | 0.00 | 0.03 | 49 | 1006.5 |
| 20260510185948 | 44 | 238 | 3.0 | 5.0 | 0.00 | 0.00 | 0.03 | 48 | 1006.4 |
| 20260510185442 | 45 | 243 | 7.0 | 8.0 | 0.00 | 0.00 | 0.03 | 48 | 1006.5 |
| 20260510184938 | 45 | 225 | 7.0 | 9.0 | 0.00 | 0.00 | 0.03 | 49 | 1006.6 |
| 20260510184432 | 46 | 238 | 7.0 | 10.0 | 0.00 | 0.00 | 0.03 | 49 | 1006.6 |
| 20260510183927 | 46 | 225 | 5.0 | 12.0 | 0.00 | 0.00 | 0.03 | 49 | 1006.7 |
| 20260510183422 | 46 | 252 | 5.0 | 9.0 | 0.00 | 0.00 | 0.03 | 50 | 1006.7 |
| 20260510182916 | 46 | 265 | 4.0 | 8.0 | 0.00 | 0.00 | 0.03 | 51 | 1006.7 |
| 20260510182412 | 46 | 225 | 12.0 | 12.0 | 0.00 | 0.00 | 0.03 | 50 | 1006.7 |
| 20260510181906 | 46 | 234 | 5.0 | 9.0 | 0.00 | 0.00 | 0.03 | 50 | 1006.8 |
| 20260510181401 | 47 | 229 | 3.0 | 7.0 | 0.00 | 0.00 | 0.03 | 50 | 1006.8 |
| 20260510180856 | 47 | 252 | 5.0 | 11.0 | 0.00 | 0.00 | 0.03 | 50 | 1006.9 |
| 20260510180350 | 47 | 265 | 8.0 | 8.0 | 0.00 | 0.00 | 0.03 | 51 | 1006.9 |
| 20260510175846 | 47 | 270 | 7.0 | 10.0 | 0.00 | 0.00 | 0.03 | 50 | 1006.9 |
| 20260510175340 | 48 | 279 | 5.0 | 9.0 | 0.00 | 0.00 | 0.03 | 51 | 1006.9 |
| 20260510174835 | 48 | 225 | 7.0 | 7.0 | 0.00 | 0.00 | 0.03 | 51 | 1006.9 |
| 20260510174330 | 48 | 319 | 5.0 | 14.0 | 0.00 | 0.00 | 0.03 | 50 | 1007.0 |
| 20260510173824 | 48 | 270 | 15.0 | 15.0 | 0.00 | 0.00 | 0.03 | 49 | 1007.0 |
| 20260510173320 | 49 | 243 | 10.0 | 13.0 | 0.00 | 0.00 | 0.03 | 49 | 1007.0 |
| 20260510172814 | 49 | 261 | 7.0 | 15.0 | 0.00 | 0.00 | 0.03 | 50 | 1007.1 |
| 20260510172309 | 50 | 265 | 12.0 | 13.0 | 0.00 | 0.00 | 0.03 | 48 | 1007.2 |
| 20260510171804 | 51 | 265 | 8.0 | 13.0 | 0.00 | 0.00 | 0.03 | 48 | 1007.3 |
| 20260510171259 | 51 | 243 | 3.0 | 6.0 | 0.00 | 0.00 | 0.03 | 48 | 1007.3 |
| 20260510170754 | 51 | 285 | 4.0 | 16.0 | 0.00 | 0.00 | 0.03 | 47 | 1007.4 |
| 20260510170248 | 51 | 270 | 6.0 | 9.0 | 0.00 | 0.00 | 0.03 | 47 | 1007.3 |
| 20260510165743 | 52 | 256 | 9.0 | 14.0 | 0.00 | 0.00 | 0.03 | 48 | 1007.3 |
| 20260510165238 | 53 | 252 | 11.0 | 12.0 | 0.00 | 0.00 | 0.03 | 49 | 1007.5 |
| 20260510164732 | 52 | 279 | 3.0 | 9.0 | 0.00 | 0.00 | 0.03 | 50 | 1007.6 |
| 20260510164228 | 52 | 279 | 3.0 | 12.0 | 0.00 | 0.00 | 0.03 | 50 | 1007.7 |
| 20260510163722 | 52 | 252 | 1.0 | 11.0 | 0.00 | 0.00 | 0.03 | 49 | 1007.7 |
| 20260510163217 | 51 | 279 | 9.0 | 10.0 | 0.00 | 0.00 | 0.03 | 50 | 1007.7 |
| 20260510162712 | 51 | 261 | 2.0 | 13.0 | 0.00 | 0.00 | 0.03 | 49 | 1007.8 |
| 20260510162206 | 52 | 265 | 13.0 | 15.0 | 0.00 | 0.00 | 0.03 | 50 | 1007.9 |
| 20260510161702 | 52 | 292 | 3.0 | 7.0 | 0.00 | 0.00 | 0.03 | 52 | 1007.9 |
| 20260510161156 | 51 | 274 | 4.0 | 7.0 | 0.00 | 0.00 | 0.03 | 52 | 1007.9 |
| 20260510160651 | 51 | 283 | 7.0 | 15.0 | 0.00 | 0.00 | 0.03 | 51 | 1008.0 |
| 20260510160146 | 52 | 252 | 15.0 | 19.0 | 0.00 | 0.00 | 0.03 | 50 | 1008.0 |
| 20260510155640 | 53 | 270 | 12.0 | 19.0 | 0.00 | 0.00 | 0.03 | 49 | 1008.0 |
| 20260510155136 | 53 | 265 | 9.0 | 18.0 | 0.00 | 0.00 | 0.03 | 51 | 1008.2 |
| 20260510154630 | 53 | 274 | 4.0 | 18.0 | 0.00 | 0.00 | 0.03 | 51 | 1008.2 |
| 20260510154125 | 52 | 270 | 10.0 | 14.0 | 0.00 | 0.00 | 0.03 | 53 | 1008.1 |
| 20260510153620 | 52 | 238 | 11.0 | 15.0 | 0.00 | 0.00 | 0.03 | 51 | 1008.2 |
| 20260510153114 | 53 | 270 | 18.0 | 20.0 | 0.00 | 0.00 | 0.03 | 50 | 1008.4 |
| 20260510152610 | 53 | 270 | 3.0 | 14.0 | 0.00 | 0.00 | 0.03 | 52 | 1008.5 |
| 20260510152104 | 53 | 256 | 13.0 | 16.0 | 0.00 | 0.00 | 0.03 | 51 | 1008.4 |
| 20260510151559 | 53 | 256 | 15.0 | 15.0 | 0.00 | 0.00 | 0.03 | 51 | 1008.4 |
| 20260510151054 | 54 | 270 | 20.0 | 20.0 | 0.00 | 0.00 | 0.03 | 53 | 1008.5 |
| 20260510150549 | 53 | 270 | 16.0 | 16.0 | 0.00 | 0.00 | 0.03 | 54 | 1008.5 |
| 20260510150044 | 52 | 270 | 16.0 | 16.0 | 0.00 | 0.00 | 0.03 | 53 | 1008.5 |
| 20260510145538 | 53 | 283 | 5.0 | 17.0 | 0.00 | 0.00 | 0.03 | 55 | 1008.6 |
| 20260510145033 | 52 | 225 | 9.0 | 12.0 | 0.00 | 0.00 | 0.03 | 55 | 1008.6 |
| 20260510144528 | 51 | 270 | 7.0 | 10.0 | 0.00 | 0.00 | 0.03 | 56 | 1008.6 |
| 20260510144022 | 52 | 238 | 8.0 | 13.0 | 0.00 | 0.00 | 0.03 | 53 | 1008.6 |
| 20260510143518 | 52 | 261 | 13.0 | 17.0 | 0.00 | 0.00 | 0.03 | 51 | 1008.7 |
| 20260510143012 | 52 | 247 | 15.0 | 15.0 | 0.00 | 0.00 | 0.03 | 51 | 1008.7 |
| 20260510142507 | 53 | 279 | 15.0 | 21.0 | 0.00 | 0.00 | 0.03 | 48 | 1008.8 |
| 20260510142002 | 54 | 261 | 14.0 | 19.0 | 0.00 | 0.00 | 0.03 | 47 | 1008.8 |
| 20260510141457 | 54 | 243 | 16.0 | 19.0 | 0.00 | 0.00 | 0.03 | 51 | 1008.9 |
| 20260510140952 | 54 | 261 | 10.0 | 19.0 | 0.00 | 0.00 | 0.03 | 51 | 1008.9 |
| 20260510140446 | 53 | 247 | 13.0 | 16.0 | 0.00 | 0.00 | 0.03 | 49 | 1008.9 |
| 20260510135941 | 54 | 225 | 15.0 | 17.0 | 0.00 | 0.00 | 0.03 | 50 | 1008.9 |
| 20260510135436 | 53 | 301 | 4.0 | 12.0 | 0.00 | 0.00 | 0.03 | 51 | 1009.1 |
| 20260510134931 | 52 | 283 | 7.0 | 16.0 | 0.00 | 0.00 | 0.03 | 51 | 1008.9 |
| 20260510134426 | 52 | 229 | 14.0 | 19.0 | 0.00 | 0.00 | 0.03 | 50 | 1009.0 |
| 20260510133920 | 53 | 265 | 2.0 | 14.0 | 0.00 | 0.00 | 0.03 | 51 | 1009.2 |
| 20260510133415 | 53 | 270 | 5.0 | 20.0 | 0.00 | 0.00 | 0.03 | 51 | 1009.2 |
| 20260510132910 | 54 | 279 | 12.0 | 20.0 | 0.00 | 0.00 | 0.03 | 48 | 1009.2 |
| 20260510132405 | 54 | 270 | 5.0 | 14.0 | 0.00 | 0.00 | 0.03 | 48 | 1009.2 |
| 20260510131900 | 55 | 247 | 11.0 | 19.0 | 0.00 | 0.00 | 0.03 | 48 | 1009.2 |
| 20260510131354 | 55 | 279 | 3.0 | 18.0 | 0.00 | 0.00 | 0.03 | 47 | 1009.4 |
| 20260510130849 | 55 | 265 | 13.0 | 16.0 | 0.00 | 0.00 | 0.03 | 48 | 1009.3 |
| 20260510130344 | 55 | 261 | 5.0 | 19.0 | 0.00 | 0.00 | 0.03 | 46 | 1009.4 |
| 20260510125839 | 56 | 265 | 13.0 | 22.0 | 0.00 | 0.00 | 0.03 | 45 | 1009.4 |
| 20260510125334 | 58 | 256 | 10.0 | 20.0 | 0.00 | 0.00 | 0.03 | 44 | 1009.6 |
| 20260510124828 | 57 | 274 | 1.0 | 10.0 | 0.00 | 0.00 | 0.03 | 50 | 1009.6 |
| 20260510124323 | 57 | 306 | 4.0 | 10.0 | 0.00 | 0.00 | 0.03 | 49 | 1009.5 |
| 20260510123818 | 56 | 274 | 9.0 | 17.0 | 0.00 | 0.00 | 0.03 | 51 | 1009.7 |
| 20260510123313 | 55 | 288 | 3.0 | 11.0 | 0.00 | 0.00 | 0.03 | 53 | 1009.7 |
| 20260510122808 | 55 | 252 | 3.0 | 17.0 | 0.00 | 0.00 | 0.03 | 49 | 1009.8 |
| 20260510122306 | 55 | 256 | 3.0 | 17.0 | 0.00 | 0.00 | 0.03 | 51 | 1009.8 |
| 20260510121757 | 55 | 288 | 2.0 | 11.0 | 0.00 | 0.00 | 0.03 | 51 | 1009.8 |
| 20260510121252 | 55 | 279 | 4.0 | 16.0 | 0.00 | 0.00 | 0.03 | 51 | 1010.0 |
| 20260510120747 | 55 | 310 | 2.0 | 17.0 | 0.00 | 0.00 | 0.03 | 51 | 1010.0 |
| 20260510120242 | 55 | 297 | 4.0 | 10.0 | 0.00 | 0.00 | 0.03 | 51 | 1010.1 |
| 20260510115736 | 55 | 310 | 6.0 | 11.0 | 0.00 | 0.00 | 0.03 | 51 | 1010.1 |
| 20260510115231 | 55 | 324 | 3.0 | 11.0 | 0.00 | 0.00 | 0.03 | 51 | 1010.1 |
| 20260510114726 | 55 | 351 | 4.0 | 11.0 | 0.00 | 0.00 | 0.03 | 53 | 1010.1 |
| 20260510114221 | 54 | 292 | 5.0 | 13.0 | 0.00 | 0.00 | 0.03 | 52 | 1010.2 |
| 20260510113716 | 55 | 270 | 8.0 | 14.0 | 0.00 | 0.00 | 0.03 | 49 | 1010.2 |
| 20260510113210 | 56 | 286 | 3.0 | 11.0 | 0.00 | 0.00 | 0.03 | 52 | 1010.3 |
| 20260510112705 | 57 | 256 | 11.0 | 17.0 | 0.00 | 0.00 | 0.03 | 53 | 1010.3 |
| 20260510111652 | 56 | 225 | 19.0 | 19.0 | 0.00 | 0.00 | 0.03 | 54 | 1010.1 |
| 20260510111147 | 56 | 256 | 12.0 | 20.0 | 0.00 | 0.00 | 0.03 | 53 | 1010.4 |
| 20260510110641 | 56 | 301 | 2.0 | 20.0 | 0.00 | 0.00 | 0.03 | 53 | 1010.4 |
| 20260510110136 | 56 | 342 | 3.0 | 12.0 | 0.00 | 0.00 | 0.03 | 53 | 1010.4 |
| 20260510105631 | 56 | 270 | 3.0 | 12.0 | 0.00 | 0.00 | 0.03 | 50 | 1010.4 |
| 20260510105126 | 56 | 310 | 4.0 | 15.0 | 0.00 | 0.00 | 0.03 | 48 | 1010.4 |
| 20260510104621 | 55 | 270 | 11.0 | 19.0 | 0.00 | 0.00 | 0.03 | 51 | 1010.4 |
| 20260510104115 | 55 | 270 | 13.0 | 20.0 | 0.00 | 0.00 | 0.03 | 50 | 1010.5 |
| 20260510103610 | 55 | 270 | 15.0 | 16.0 | 0.00 | 0.00 | 0.03 | 51 | 1010.5 |
| 20260510103105 | 55 | 256 | 14.0 | 20.0 | 0.00 | 0.00 | 0.03 | 51 | 1010.6 |
| 20260510102600 | 55 | 328 | 8.0 | 21.0 | 0.00 | 0.00 | 0.03 | 52 | 1010.6 |
| 20260510102055 | 55 | 243 | 16.0 | 19.0 | 0.00 | 0.00 | 0.03 | 54 | 1010.7 |
| 20260510101549 | 56 | 261 | 17.0 | 20.0 | 0.00 | 0.00 | 0.03 | 55 | 1010.7 |
| 20260510101044 | 55 | 247 | 19.0 | 20.0 | 0.00 | 0.00 | 0.03 | 57 | 1010.6 |
| 20260510100539 | 55 | 252 | 14.0 | 18.0 | 0.00 | 0.00 | 0.03 | 56 | 1010.8 |
| 20260510100034 | 56 | 270 | 12.0 | 23.0 | 0.00 | 0.00 | 0.03 | 57 | 1010.7 |
| 20260510095529 | 56 | 180 | 13.0 | 22.0 | 0.00 | 0.00 | 0.03 | 59 | 1010.7 |
| 20260510095023 | 55 | 211 | 18.0 | 23.0 | 0.00 | 0.00 | 0.03 | 61 | 1010.8 |
| 20260510094518 | 54 | 184 | 14.0 | 22.0 | 0.00 | 0.00 | 0.03 | 62 | 1011.0 |
| 20260510094013 | 53 | 225 | 16.0 | 19.0 | 0.00 | 0.00 | 0.03 | 62 | 1010.9 |
| 20260510093508 | 53 | 225 | 9.0 | 17.0 | 0.00 | 0.00 | 0.03 | 61 | 1011.1 |
| 20260510093003 | 53 | 207 | 21.0 | 21.0 | 0.00 | 0.00 | 0.03 | 61 | 1011.0 |
| 20260510092457 | 53 | 193 | 12.0 | 20.0 | 0.00 | 0.00 | 0.03 | 61 | 1011.1 |
| 20260510091952 | 54 | 189 | 10.0 | 15.0 | 0.00 | 0.00 | 0.03 | 62 | 1011.1 |
| 20260510091447 | 55 | 139 | 12.0 | 19.0 | 0.00 | 0.00 | 0.03 | 63 | 1011.1 |
| 20260510090942 | 54 | 184 | 13.0 | 17.0 | 0.00 | 0.00 | 0.03 | 64 | 1011.2 |
| 20260510090437 | 53 | 175 | 19.0 | 21.0 | 0.00 | 0.00 | 0.03 | 66 | 1011.2 |
| 20260510085931 | 52 | 180 | 14.0 | 22.0 | 0.00 | 0.00 | 0.03 | 63 | 1011.2 |
| 20260510085426 | 53 | 180 | 14.0 | 22.0 | 0.00 | 0.00 | 0.03 | 61 | 1011.3 |
| 20260510084921 | 55 | 171 | 20.0 | 21.0 | 0.00 | 0.00 | 0.03 | 59 | 1011.2 |
| 20260510084416 | 56 | 180 | 25.0 | 25.0 | 0.00 | 0.00 | 0.03 | 59 | 1011.1 |
| 20260510083911 | 56 | 166 | 15.0 | 24.0 | 0.00 | 0.00 | 0.03 | 61 | 1011.2 |
| 20260510083405 | 56 | 157 | 18.0 | 22.0 | 0.00 | 0.00 | 0.03 | 61 | 1011.2 |
| 20260510082900 | 55 | 180 | 11.0 | 18.0 | 0.00 | 0.00 | 0.03 | 61 | 1011.3 |
| 20260510082355 | 55 | 211 | 14.0 | 19.0 | 0.00 | 0.00 | 0.03 | 61 | 1011.5 |
| 20260510081850 | 55 | 153 | 20.0 | 23.0 | 0.00 | 0.00 | 0.03 | 61 | 1011.2 |
| 20260510081345 | 56 | 180 | 15.0 | 21.0 | 0.00 | 0.00 | 0.03 | 60 | 1011.4 |
| 20260510080839 | 55 | 184 | 18.0 | 21.0 | 0.00 | 0.00 | 0.03 | 61 | 1011.4 |
| 20260510080334 | 56 | 180 | 15.0 | 20.0 | 0.00 | 0.00 | 0.03 | 59 | 1011.5 |
| 20260510075829 | 56 | 180 | 15.0 | 21.0 | 0.00 | 0.00 | 0.03 | 60 | 1011.5 |
| 20260510075324 | 56 | 171 | 17.0 | 21.0 | 0.00 | 0.00 | 0.03 | 60 | 1011.6 |
| 20260510074819 | 56 | 184 | 16.0 | 18.0 | 0.00 | 0.00 | 0.03 | 61 | 1011.4 |
| 20260510074313 | 56 | 162 | 9.0 | 17.0 | 0.00 | 0.00 | 0.03 | 61 | 1011.7 |
| 20260510073808 | 55 | 175 | 13.0 | 19.0 | 0.00 | 0.00 | 0.03 | 61 | 1011.7 |
| 20260510073303 | 55 | 175 | 10.0 | 22.0 | 0.00 | 0.00 | 0.03 | 60 | 1011.8 |
| 20260510072758 | 55 | 180 | 14.0 | 19.0 | 0.00 | 0.00 | 0.03 | 61 | 1011.8 |
| 20260510072253 | 55 | 184 | 12.0 | 20.0 | 0.00 | 0.00 | 0.03 | 61 | 1011.8 |
| 20260510071747 | 55 | 184 | 14.0 | 19.0 | 0.00 | 0.00 | 0.03 | 62 | 1012.0 |
| 20260510071242 | 55 | 171 | 13.0 | 18.0 | 0.00 | 0.00 | 0.03 | 61 | 1012.0 |
| 20260510070737 | 54 | 225 | 18.0 | 18.0 | 0.00 | 0.00 | 0.03 | 62 | 1012.0 |
| 20260510070232 | 54 | 189 | 12.0 | 19.0 | 0.00 | 0.00 | 0.03 | 62 | 1012.2 |
| 20260510065727 | 54 | 184 | 10.0 | 20.0 | 0.00 | 0.00 | 0.03 | 64 | 1012.1 |
| 20260510065221 | 53 | 180 | 11.0 | 18.0 | 0.00 | 0.00 | 0.03 | 65 | 1012.3 |
| 20260510064716 | 53 | 171 | 14.0 | 18.0 | 0.00 | 0.00 | 0.03 | 65 | 1012.3 |
| 20260510064211 | 53 | 220 | 16.0 | 16.0 | 0.00 | 0.00 | 0.03 | 66 | 1012.2 |
| 20260510063706 | 52 | 193 | 11.0 | 15.0 | 0.00 | 0.00 | 0.02 | 66 | 1012.4 |
| 20260510063201 | 52 | 180 | 16.0 | 16.0 | 0.00 | 0.00 | 0.02 | 67 | 1012.3 |
| 20260510062655 | 51 | 180 | 8.0 | 15.0 | 0.00 | 0.00 | 0.02 | 66 | 1012.5 |
| 20260510062150 | 52 | 202 | 11.0 | 13.0 | 0.00 | 0.00 | 0.02 | 65 | 1012.5 |
| 20260510061645 | 52 | 216 | 9.0 | 14.0 | 0.00 | 0.00 | 0.01 | 67 | 1012.6 |
| 20260510061140 | 52 | 180 | 8.0 | 9.0 | 0.00 | 0.00 | 0.01 | 67 | 1012.5 |
| 20260510060635 | 51 | 180 | 10.0 | 11.0 | 0.00 | 0.00 | 0.00 | 68 | 1012.6 |
| 20260510060129 | 51 | 180 | 8.0 | 12.0 | 0.00 | 0.00 | 0.00 | 68 | 1012.5 |
| 20260510055624 | 51 | 180 | 9.0 | 11.0 | 0.00 | 0.00 | 0.00 | 70 | 1012.5 |
| 20260510055119 | 50 | 180 | 4.0 | 9.0 | 0.00 | 0.00 | 0.00 | 71 | 1012.7 |
| 20260510054614 | 49 | 157 | 7.0 | 7.0 | 0.00 | 0.00 | 0.00 | 72 | 1012.6 |
| 20260510054109 | 49 | 162 | 5.0 | 7.0 | 0.00 | 0.00 | 0.00 | 72 | 1012.6 |
| 20260510053603 | 48 | 108 | 3.0 | 4.0 | 0.00 | 0.00 | 0.00 | 74 | 1012.7 |
| 20260510053058 | 46 | 135 | 0.0 | 2.0 | 0.00 | 0.00 | 0.00 | 75 | 1012.7 |
| 20260510052553 | 45 | 225 | 0.0 | 1.0 | 0.00 | 0.00 | 0.00 | 75 | 1012.8 |
| 20260510052048 | 43 | 0 | 1.0 | 1.0 | 0.00 | 0.00 | 0.00 | 76 | 1012.9 |
| 20260510051543 | 42 | 9 | 0.0 | 1.0 | 0.00 | 0.00 | 0.00 | 76 | 1013.0 |
| 20260510051037 | 41 | 0 | 1.0 | 1.0 | 0.00 | 0.00 | 0.00 | 76 | 1013.0 |
| 20260510050532 | 40 | 45 | 0.0 | 0.0 | 0.00 | 0.00 | 0.00 | 77 | 1013.0 |
| 20260510050027 | 39 | 0 | 1.0 | 2.0 | 0.00 | 0.00 | 0.00 | 77 | 1013.1 |
| 20260510045522 | 38 | 0 | 1.0 | 2.0 | 0.00 | 0.00 | 0.00 | 77 | 1013.0 |
| 20260510045017 | 38 | 45 | 1.0 | 1.0 | 0.00 | 0.00 | 0.00 | 78 | 1013.1 |
| 20260510044511 | 37 | 0 | 1.0 | 2.0 | 0.00 | 0.00 | 0.00 | 77 | 1013.0 |
| 20260510044006 | 36 | 0 | 2.0 | 2.0 | 0.00 | 0.00 | 0.00 | 77 | 1013.2 |
| 20260510043501 | 36 | 45 | 1.0 | 4.0 | 0.00 | 0.00 | 0.00 | 77 | 1013.1 |
| 20260510042956 | 35 | 0 | 2.0 | 3.0 | 0.00 | 0.00 | 0.00 | 78 | 1013.1 |
| 20260510042451 | 35 | 9 | 2.0 | 4.0 | 0.00 | 0.00 | 0.00 | 77 | 1013.2 |
| 20260510041945 | 34 | 0 | 3.0 | 3.0 | 0.00 | 0.00 | 0.00 | 77 | 1013.2 |
| 20260510041440 | 33 | 0 | 2.0 | 3.0 | 0.00 | 0.00 | 0.00 | 76 | 1013.2 |
| 20260510040935 | 33 | 0 | 3.0 | 3.0 | 0.00 | 0.00 | 0.00 | 76 | 1013.3 |
| 20260510040430 | 33 | 45 | 1.0 | 3.0 | 0.00 | 0.00 | 0.00 | 76 | 1013.4 |
| 20260510035925 | 32 | 0 | 2.0 | 4.0 | 0.00 | 0.00 | 0.00 | 76 | 1013.5 |
| 20260510035419 | 32 | 0 | 3.0 | 4.0 | 0.00 | 0.00 | 0.00 | 76 | 1013.5 |
| 20260510034914 | 32 | 0 | 3.0 | 3.0 | 0.00 | 0.00 | 0.00 | 76 | 1013.6 |
| 20260510034409 | 32 | 0 | 2.0 | 2.0 | 0.00 | 0.00 | 0.00 | 76 | 1013.6 |
| 20260510033904 | 32 | 45 | 1.0 | 4.0 | 0.00 | 0.00 | 0.00 | 76 | 1013.7 |
| 20260510033359 | 32 | 0 | 2.0 | 4.0 | 0.00 | 0.00 | 0.00 | 75 | 1013.8 |
| 20260510032853 | 31 | 0 | 3.0 | 4.0 | 0.00 | 0.00 | 0.00 | 75 | 1013.8 |
| 20260510032348 | 31 | 0 | 4.0 | 4.0 | 0.00 | 0.00 | 0.00 | 75 | 1013.9 |
| 20260510031843 | 31 | 45 | 0.0 | 0.0 | 0.00 | 0.00 | 0.00 | 75 | 1013.9 |
| 20260510031338 | 31 | 45 | 1.0 | 2.0 | 0.00 | 0.00 | 0.00 | 75 | 1014.0 |
| 20260510030833 | 31 | 0 | 2.0 | 3.0 | 0.00 | 0.00 | 0.00 | 75 | 1014.1 |
| 20260510030327 | 31 | 0 | 3.0 | 3.0 | 0.00 | 0.00 | 0.00 | 75 | 1014.2 |
| 20260510025822 | 31 | 0 | 3.0 | 3.0 | 0.00 | 0.00 | 0.00 | 74 | 1014.2 |
| 20260510025317 | 31 | 0 | 2.0 | 3.0 | 0.00 | 0.00 | 0.00 | 74 | 1014.3 |
| 20260510024812 | 31 | 45 | 1.0 | 2.0 | 0.00 | 0.00 | 0.00 | 74 | 1014.2 |
| 20260510024307 | 31 | 0 | 2.0 | 2.0 | 0.00 | 0.00 | 0.00 | 74 | 1014.3 |
| 20260510023801 | 31 | 0 | 1.0 | 3.0 | 0.00 | 0.00 | 0.00 | 74 | 1014.4 |
| 20260510023256 | 31 | 0 | 2.0 | 2.0 | 0.00 | 0.00 | 0.00 | 74 | 1014.5 |
| 20260510022751 | 31 | 45 | 1.0 | 2.0 | 0.00 | 0.00 | 0.00 | 73 | 1014.6 |
| 20260510022246 | 31 | 45 | 1.0 | 2.0 | 0.00 | 0.00 | 0.00 | 73 | 1014.5 |
| 20260510021741 | 31 | 0 | 2.0 | 2.0 | 0.00 | 0.00 | 0.00 | 73 | 1014.5 |
| 20260510021235 | 31 | 0 | 1.0 | 2.0 | 0.00 | 0.00 | 0.00 | 73 | 1014.6 |
| 20260510020730 | 31 | 0 | 2.0 | 3.0 | 0.00 | 0.00 | 0.00 | 73 | 1014.8 |
| 20260510020225 | 31 | 22 | 1.0 | 2.0 | 0.00 | 0.00 | 0.00 | 72 | 1014.8 |
| 20260510015720 | 31 | 45 | 1.0 | 2.0 | 0.00 | 0.00 | 0.00 | 72 | 1014.7 |
| 20260510015215 | 31 | 45 | 1.0 | 2.0 | 0.00 | 0.00 | 0.00 | 72 | 1014.8 |
| 20260510014709 | 32 | 0 | 1.0 | 1.0 | 0.00 | 0.00 | 0.00 | 72 | 1015.0 |
| 20260510014204 | 32 | 9 | 1.0 | 2.0 | 0.00 | 0.00 | 0.00 | 72 | 1014.9 |
| 20260510013659 | 32 | 0 | 1.0 | 2.0 | 0.00 | 0.00 | 0.00 | 72 | 1015.0 |
| 20260510013154 | 32 | 45 | 2.0 | 2.0 | 0.00 | 0.00 | 0.00 | 72 | 1015.1 |
| 20260510012649 | 32 | 0 | 1.0 | 2.0 | 0.00 | 0.00 | 0.00 | 72 | 1015.1 |
| 20260510012143 | 32 | 45 | 0.0 | 1.0 | 0.00 | 0.00 | 0.00 | 72 | 1015.2 |
| 20260510011638 | 32 | 45 | 1.0 | 2.0 | 0.00 | 0.00 | 0.00 | 72 | 1015.3 |
| 20260510011133 | 32 | 45 | 1.0 | 3.0 | 0.00 | 0.00 | 0.00 | 72 | 1015.3 |
| 20260510010628 | 32 | 45 | 1.0 | 2.0 | 0.00 | 0.00 | 0.00 | 72 | 1015.4 |
| 20260510010123 | 32 | 0 | 1.0 | 2.0 | 0.00 | 0.00 | 0.00 | 72 | 1015.4 |
| 20260510005617 | 33 | 45 | 0.0 | 1.0 | 0.00 | 0.00 | 0.00 | 72 | 1015.5 |
| 20260510005112 | 33 | 45 | 0.0 | 2.0 | 0.00 | 0.00 | 0.00 | 71 | 1015.6 |
| 20260510004607 | 33 | 4 | 2.0 | 3.0 | 0.00 | 0.00 | 0.00 | 71 | 1015.6 |
| 20260510004102 | 33 | 45 | 1.0 | 2.0 | 0.00 | 0.00 | 0.00 | 71 | 1015.7 |
| 20260510003557 | 33 | 45 | 1.0 | 1.0 | 0.00 | 0.00 | 0.00 | 71 | 1015.8 |
| 20260510003051 | 33 | 45 | 1.0 | 1.0 | 0.00 | 0.00 | 0.00 | 71 | 1015.9 |
| 20260510002546 | 33 | 45 | 1.0 | 1.0 | 0.00 | 0.00 | 0.00 | 70 | 1015.9 |
| 20260510001536 | 33 | 0 | 3.0 | 3.0 | 0.00 | 0.00 | 0.00 | 71 | 1016.0 |
| 20260510001031 | 33 | 45 | 0.0 | 1.0 | 0.00 | 0.00 | 0.00 | 71 | 1016.1 |
| 20260510000525 | 33 | 45 | 1.0 | 1.0 | 0.00 | 0.00 | 0.00 | 71 | 1016.2 |
| 20260510000020 | 33 | 45 | 1.0 | 1.0 | 0.00 | 0.00 | 0.00 | 70 | 1016.2 |
| 20260509235515 | 33 | 0 | 2.0 | 3.0 | 0.00 | 0.00 | 0.00 | 70 | 1016.3 |
| 20260509235010 | 33 | 0 | 2.0 | 3.0 | 0.00 | 0.00 | 0.00 | 70 | 1016.3 |
| 20260509234505 | 33 | 0 | 2.0 | 2.0 | 0.00 | 0.00 | 0.00 | 69 | 1016.3 |
| 20260509233959 | 33 | 22 | 1.0 | 2.0 | 0.00 | 0.00 | 0.00 | 69 | 1016.4 |
| 20260509233454 | 33 | 45 | 1.0 | 2.0 | 0.00 | 0.00 | 0.00 | 69 | 1016.5 |
| 20260509232949 | 33 | 45 | 0.0 | 0.0 | 0.00 | 0.00 | 0.00 | 68 | 1016.5 |
| 20260509232444 | 33 | 45 | 0.0 | 2.0 | 0.00 | 0.00 | 0.00 | 68 | 1016.5 |
| 20260509231939 | 33 | 45 | 0.0 | 3.0 | 0.00 | 0.00 | 0.00 | 69 | 1016.7 |
| 20260509231433 | 33 | 45 | 1.0 | 1.0 | 0.00 | 0.00 | 0.00 | 68 | 1016.6 |
| 20260509230928 | 33 | 0 | 1.0 | 2.0 | 0.00 | 0.00 | 0.00 | 68 | 1016.6 |
| 20260509230423 | 33 | 0 | 2.0 | 2.0 | 0.00 | 0.00 | 0.00 | 68 | 1016.7 |
| 20260509225918 | 33 | 81 | 0.0 | 0.0 | 0.00 | 0.00 | 0.00 | 68 | 1016.8 |
| 20260509225413 | 33 | 180 | 0.0 | 0.0 | 0.00 | 0.00 | 0.00 | 66 | 1016.9 |
| 20260509224907 | 34 | 180 | 0.0 | 0.0 | 0.00 | 0.00 | 0.00 | 66 | 1017.0 |
| 20260509224402 | 34 | 180 | 1.0 | 1.0 | 0.00 | 0.00 | 0.00 | 66 | 1016.9 |
| 20260509223857 | 34 | 135 | 1.0 | 1.0 | 0.00 | 0.00 | 0.00 | 66 | 1017.0 |
| 20260509223352 | 34 | 90 | 0.0 | 0.0 | 0.00 | 0.00 | 0.00 | 65 | 1017.1 |
| 20260509222847 | 34 | 45 | 0.0 | 0.0 | 0.00 | 0.00 | 0.00 | 64 | 1017.1 |
| 20260509222341 | 34 | 45 | 0.0 | 0.0 | 0.00 | 0.00 | 0.00 | 65 | 1017.1 |
| 20260509221836 | 34 | 45 | 0.0 | 0.0 | 0.00 | 0.00 | 0.00 | 64 | 1017.1 |
| 20260509221331 | 35 | 45 | 0.0 | 0.0 | 0.00 | 0.00 | 0.00 | 64 | 1017.1 |
| 20260509220826 | 35 | 45 | 0.0 | 0.0 | 0.00 | 0.00 | 0.00 | 63 | 1017.1 |
| 20260509220321 | 35 | 45 | 0.0 | 0.0 | 0.00 | 0.00 | 0.00 | 62 | 1017.2 |
| 20260509215815 | 35 | 45 | 0.0 | 1.0 | 0.00 | 0.00 | 0.00 | 62 | 1017.1 |
| 20260509215310 | 35 | 45 | 0.0 | 1.0 | 0.00 | 0.00 | 0.00 | 62 | 1017.2 |
| 20260509214805 | 35 | 45 | 0.0 | 0.0 | 0.00 | 0.00 | 0.00 | 62 | 1017.3 |
| 20260509214300 | 35 | 90 | 0.0 | 0.0 | 0.00 | 0.00 | 0.00 | 60 | 1017.3 |
| 20260509213755 | 35 | 90 | 0.0 | 0.0 | 0.00 | 0.00 | 0.00 | 60 | 1017.4 |
| 20260509213249 | 35 | 225 | 0.0 | 0.0 | 0.00 | 0.00 | 0.00 | 59 | 1017.3 |
| 20260509212744 | 35 | 90 | 0.0 | 0.0 | 0.00 | 0.00 | 0.00 | 58 | 1017.3 |
| 20260509212239 | 35 | 90 | 0.0 | 0.0 | 0.00 | 0.00 | 0.00 | 57 | 1017.3 |
| 20260509211734 | 36 | 90 | 0.0 | 1.0 | 0.00 | 0.00 | 0.00 | 56 | 1017.4 |
| 20260509211229 | 36 | 90 | 0.0 | 0.0 | 0.00 | 0.00 | 0.00 | 56 | 1017.4 |
| 20260509210723 | 37 | 90 | 0.0 | 0.0 | 0.00 | 0.00 | 0.00 | 56 | 1017.4 |
| 20260509210218 | 37 | 90 | 0.0 | 0.0 | 0.00 | 0.00 | 0.00 | 55 | 1017.3 |
| 20260509205713 | 37 | 90 | 0.0 | 0.0 | 0.00 | 0.00 | 0.00 | 55 | 1017.4 |
| 20260509205208 | 37 | 90 | 0.0 | 0.0 | 0.00 | 0.00 | 0.00 | 54 | 1017.4 |
| 20260509204703 | 38 | 90 | 0.0 | 0.0 | 0.00 | 0.00 | 0.00 | 54 | 1017.4 |
| 20260509204157 | 38 | 90 | 0.0 | 0.0 | 0.00 | 0.00 | 0.00 | 52 | 1017.3 |
| 20260509203652 | 38 | 90 | 0.0 | 0.0 | 0.00 | 0.00 | 0.00 | 51 | 1017.4 |
| 20260509203147 | 39 | 90 | 0.0 | 0.0 | 0.00 | 0.00 | 0.00 | 51 | 1017.3 |
| 20260509202642 | 39 | 135 | 0.0 | 0.0 | 0.00 | 0.00 | 0.00 | 50 | 1017.3 |
| 20260509202137 | 40 | 135 | 0.0 | 1.0 | 0.00 | 0.00 | 0.00 | 49 | 1017.4 |
| 20260509201631 | 40 | 180 | 0.0 | 1.0 | 0.00 | 0.00 | 0.00 | 48 | 1017.5 |
| 20260509201126 | 40 | 180 | 1.0 | 1.0 | 0.00 | 0.00 | 0.00 | 47 | 1017.5 |
| 20260509200621 | 41 | 135 | 0.0 | 0.0 | 0.00 | 0.00 | 0.00 | 47 | 1017.4 |
| 20260509200116 | 41 | 135 | 0.0 | 1.0 | 0.00 | 0.00 | 0.00 | 46 | 1017.3 |
| 20260509195611 | 42 | 135 | 0.0 | 0.0 | 0.00 | 0.00 | 0.00 | 45 | 1017.4 |
| 20260509195105 | 42 | 135 | 0.0 | 1.0 | 0.00 | 0.00 | 0.00 | 45 | 1017.5 |
| 20260509194600 | 42 | 112 | 0.0 | 0.0 | 0.00 | 0.00 | 0.00 | 43 | 1017.5 |
| 20260509194055 | 43 | 180 | 0.0 | 0.0 | 0.00 | 0.00 | 0.00 | 42 | 1017.5 |
| 20260509193550 | 43 | 180 | 0.0 | 1.0 | 0.00 | 0.00 | 0.00 | 42 | 1017.5 |
| 20260509193045 | 44 | 225 | 2.0 | 3.0 | 0.00 | 0.00 | 0.00 | 39 | 1017.5 |
| 20260509192539 | 44 | 270 | 0.0 | 0.0 | 0.00 | 0.00 | 0.00 | 38 | 1017.5 |